[[{"header":{"parameterUnit":"m.s-1","parameterCategory":2,"la1":30.2991,"la2":30.254,"lo1":-89.0895,"lo2":-89.0444,"dy":0.0017,"dx":0.0017,"nx":28,"ny":28,"refTime":"2024-12-17T03:00:00:Z","depth":"0","parameterNumber":2,"parameterNumberName":"U-component_of_CURRENTS"},"data":[0,0,0,0,0,0,0,0,0,0,0,0,0,0,0,0,0,0,0,0,0,0,0,0,0,0,0,0,0,0,0,0,0,0,0,0,0,0,0,0,0,0,0,0,0,0,0,0,0,0,0,0,0,0,0,0,0,0,0.3943,0.3944,0,0.4016,0.4016,0.4017,0.4018,0.4018,0.4017,0.4016,0.3983,0.3982,0.3982,0,0,0,0,0,0,0,0,0,0,0,0,0,0.3836,0.3837,0.3943,0.3944,0.3945,0.4016,0.4016,0.4017,0.4018,0.4018,0.4017,0.4016,0.3983,0.3983,0.3982,0,0,0,0,0,0,0,0,0,0,0,0,0,0.389,0.3838,0.3943,0.3956,0.3958,0.4015,0.4016,0.4017,0.4019,0.4018,0.4017,0.4016,0.3983,0.3983,0.3982,0.3999,0,0,0.3981,0.3981,0,0,0,0,0,0,0,0,0.3887,0.3894,0.3953,0.3955,0.3958,0.4009,0.3967,0.4007,0.4019,0.3993,0.4016,0.4015,0.3984,0.3984,0.3997,0.3998,0.3996,0.3981,0.3981,0.398,0.398,0,0,0,0,0,0,0,0.3883,0.3891,0.3969,0.3954,0.3957,0.397,0.3976,0.3975,0.3989,0.3995,0.3996,0.4009,0.3984,0.3998,0.3996,0.3996,0.3981,0.398,0.398,0.398,0.4028,0.403,0,0,0,0,0,0,0.3879,0.3887,0.3967,0.3971,0.3922,0.3972,0.3979,0.3992,0.3992,0.3992,0.401,0.4009,0.3999,0.3997,0.3995,0.4031,0.398,0.398,0.398,0.4027,0.4028,0.403,0,0,0,0,0,0,0.3877,0.3886,0.3964,0.3933,0.3944,0.3975,0.3989,0.3994,0.4008,0.4004,0.4002,0.4019,0.3998,0.3995,0.4,0.4029,0.398,0.3979,0.4025,0.4027,0.4029,0.4093,0,0,0,0,0,0,0.3873,0.3884,0.3892,0.3933,0.3946,0.3989,0.3991,0.3996,0.4018,0.4018,0.4012,0.4008,0.3997,0.4001,0.3999,0.4027,0.3979,0.4023,0.4026,0.4029,0.4089,0.4097,0.4104,0,0,0,0,0,0.3869,0.388,0.3892,0.3901,0.3955,0.399,0.3997,0.4014,0.402,0.4023,0.4028,0.4008,0.4018,0.4001,0.3999,0.4028,0.4021,0.4025,0.4028,0.4086,0.4096,0.4104,0,0,0,0,0,0,0.383,0.3883,0.3896,0.392,0.3951,0.3991,0.4002,0.4019,0.4031,0.4025,0.4022,0.4019,0.4038,0.4024,0.4006,0.4052,0.4019,0.4022,0.4063,0.4072,0.408,0.4109,0.3979,0,0,0,0,0,0.3829,0.3855,0.3899,0.3918,0.3934,0.3971,0.3989,0.4,0.4019,0.4024,0.4029,0.4035,0.4054,0.4053,0.4058,0.4077,0.4111,0.4097,0.4105,0.4111,0.4135,0.4209,0.4226,0.4041,0.4041,0.4041,0,0,0.3818,0.3853,0.3866,0.3913,0.3939,0.3973,0.3978,0.4001,0.4036,0.4017,0.4055,0.4059,0.4065,0.4093,0.41,0.4081,0.4185,0.4115,0.4121,0.4142,0.4214,0.4233,0.4249,0.4044,0.4043,0.4043,0,0,0.3814,0.3842,0.3862,0.3894,0.3935,0.3966,0.3975,0.4017,0.4037,0.4069,0.408,0.4107,0.4115,0.4146,0.4158,0.4212,0.4225,0.4205,0.4265,0.4336,0.4353,0.4367,0.4452,0.4474,0.4207,0.4207,0.4207,0,0.3793,0.3837,0.387,0.3902,0.3937,0.3967,0.3999,0.4033,0.4072,0.4108,0.4079,0.4159,0.4151,0.423,0.4248,0.4232,0.4278,0.4227,0.4348,0.4363,0.4377,0.446,0.4484,0.4211,0.421,0.421,0.421,0,0.3812,0.3848,0.3863,0.3924,0.3961,0.3989,0.4047,0.4086,0.4113,0.4154,0.4225,0.4232,0.4287,0.4287,0.428,0.4385,0.4389,0.4351,0.4327,0.44,0.4483,0.4506,0.4216,0.4214,0.4213,0.4213,0,0,0.3768,0.3856,0.3864,0.3903,0.3976,0.4011,0.4082,0.4165,0.4229,0.4261,0.4353,0.4388,0.4407,0.4425,0.443,0.4484,0.4616,0.4463,0.4465,0.4552,0.4799,0.4789,0.4813,0.46,0.4604,0.4607,0.4824,0,0.3773,0.3836,0.3886,0.3957,0.4,0.4066,0.4138,0.4216,0.4278,0.4369,0.4417,0.4485,0.4457,0.4484,0.4545,0.46,0.4678,0.4563,0.4711,0.4717,0.4703,0.484,0.4649,0.4825,0.4846,0.485,0.4853,0,0.378,0.3831,0.3891,0.4,0.4025,0.4069,0.4205,0.4268,0.4404,0.4451,0.4543,0.4587,0.4704,0.4642,0.4814,0.4744,0.4791,0.4821,0.4829,0.4816,0.475,0.4752,0.4866,0.4764,0.4888,0.4885,0.4882,0,0.3753,0.3841,0.3892,0.3925,0.4043,0.4091,0.4159,0.429,0.4372,0.4511,0.4587,0.4716,0.4792,0.4877,0.4968,0.4899,0.5152,0.5056,0.5104,0.5103,0.4971,0.4953,0.5006,0.5188,0.5188,0.5187,0.5187,0,0.3753,0.3797,0.3879,0.3912,0.3988,0.4073,0.4176,0.426,0.4407,0.4527,0.4623,0.475,0.4853,0.5007,0.505,0.5189,0.5233,0.5169,0.5176,0.4989,0.497,0.4895,0.4847,0.5196,0.5194,0.5192,0.5191,0,0.3721,0.3771,0.3835,0.3942,0.3974,0.4026,0.4174,0.4257,0.4391,0.4556,0.461,0.482,0.5024,0.515,0.5317,0.5304,0.5286,0.5445,0.5235,0.5213,0.51,0.5061,0.4962,0.4812,0.552,0.5522,0.5523,0,0.3711,0.3737,0.3834,0.3871,0.3914,0.4006,0.4075,0.4222,0.4313,0.4606,0.4679,0.4946,0.5124,0.5394,0.5433,0.5558,0.538,0.5424,0.5243,0.5127,0.5089,0.4855,0.4717,0.5102,0.5099,0.5097,0.5096,0,0.3701,0.3724,0.3785,0.3852,0.3911,0.3984,0.4088,0.4155,0.4354,0.4506,0.4729,0.4908,0.5202,0.5259,0.544,0.547,0.5167,0.5386,0.5309,0.4832,0.4537,0.4382,0.4944,0.5078,0.508,0.5081,0.5082,0.5083,0.3692,0.3725,0.3794,0.3851,0.39,0.3939,0.3968,0.4091,0.4224,0.4425,0.4665,0.4856,0.5054,0.5277,0.5285,0.5163,0.5094,0.4993,0.4984,0.4778,0.4536,0.5087,0.5191,0.5194,0.5196,0.5198,0.5199,0,0.371,0.375,0.3797,0.3846,0.3846,0.3893,0.3962,0.3969,0.4058,0.43,0.4486,0.4675,0.4798,0.4912,0.4907,0.4757,0.4488,0.4657,0.4265,0.4167,0.4717,0.46,0.4526,0.4526,0.4526,0.4526,0.4526,0.4526,0.3732,0.3776,0.3793,0.3779,0.3787,0.375,0.3753,0.3767,0.3875,0.3987,0.408,0.4239,0.4505,0.4713,0.4604,0.4488,0.4131,0.3981,0.397,0.4367,0.4394,0.4419,0.4297,0.4161,0.4161,0.3187,0.318,0.3175]},{"header":{"parameterUnit":"m.s-1","parameterCategory":2,"la1":30.2991,"la2":30.254,"lo1":-89.0895,"lo2":-89.0444,"dy":0.0017,"dx":0.0017,"nx":28,"ny":28,"refTime":"2024-12-17T03:00:00:Z","depth":"0","parameterNumber":3,"parameterNumberName":"V-component_of_CURRENTS"},"data":[0,0,0,0,0,0,0,0,0,0,0,0,0,0,0,0,0,0,0,0,0,0,0,0,0,0,0,0,0,0,0,0,0,0,0,0,0,0,0,0,0,0,0,0,0,0,0,0,0,0,0,0,0,0,0,0,0,0,-0.0597,-0.0598,0,-0.0649,-0.065,-0.0651,-0.0716,-0.0717,-0.0718,-0.0719,-0.0791,-0.0792,-0.0793,0,0,0,0,0,0,0,0,0,0,0,0,0,-0.0621,-0.062,-0.0597,-0.0598,-0.0598,-0.0649,-0.065,-0.0651,-0.0716,-0.0717,-0.0718,-0.0719,-0.0791,-0.0792,-0.0793,0,0,0,0,0,0,0,0,0,0,0,0,0,-0.0637,-0.0619,-0.0597,-0.0635,-0.0639,-0.0649,-0.065,-0.0651,-0.0716,-0.0717,-0.0718,-0.0719,-0.079,-0.0792,-0.0794,-0.0779,0,0,-0.0799,-0.08,0,0,0,0,0,0,0,0,-0.0636,-0.0637,-0.0629,-0.0632,-0.0637,-0.0676,-0.0685,-0.0694,-0.0715,-0.0689,-0.0719,-0.072,-0.0752,-0.0757,-0.0767,-0.0783,-0.0786,-0.0799,-0.08,-0.0801,-0.0801,0,0,0,0,0,0,0,-0.0635,-0.0635,-0.062,-0.0629,-0.0634,-0.0672,-0.0676,-0.0687,-0.0715,-0.0691,-0.0696,-0.0697,-0.0755,-0.0765,-0.0769,-0.0787,-0.0799,-0.0801,-0.0802,-0.0802,-0.0802,-0.0801,0,0,0,0,0,0,-0.0619,-0.0633,-0.0619,-0.0622,-0.0637,-0.067,-0.0674,-0.0664,-0.0715,-0.0723,-0.0696,-0.07,-0.0761,-0.0767,-0.0772,-0.0753,-0.0801,-0.0803,-0.0804,-0.0803,-0.0802,-0.0801,0,0,0,0,0,0,-0.0619,-0.0616,-0.0616,-0.0628,-0.063,-0.0668,-0.0656,-0.0664,-0.0671,-0.0718,-0.0727,-0.0694,-0.0763,-0.0769,-0.0773,-0.0757,-0.0803,-0.0805,-0.0804,-0.0803,-0.0801,-0.0719,0,0,0,0,0,0,-0.0619,-0.0616,-0.0596,-0.0626,-0.0629,-0.0591,-0.0655,-0.0664,-0.0669,-0.0675,-0.0719,-0.0727,-0.0764,-0.077,-0.0775,-0.076,-0.0806,-0.0806,-0.0804,-0.0802,-0.0723,-0.0715,-0.0708,0,0,0,0,0,-0.0619,-0.0571,-0.0594,-0.0592,-0.0602,-0.0588,-0.0592,-0.0627,-0.0668,-0.0644,-0.0691,-0.0726,-0.0762,-0.077,-0.0776,-0.0762,-0.0807,-0.0804,-0.0802,-0.0727,-0.0717,-0.0708,0,0,0,0,0,0,-0.0549,-0.0574,-0.06,-0.0557,-0.0563,-0.0598,-0.0575,-0.0615,-0.0634,-0.0644,-0.0708,-0.0717,-0.0717,-0.0744,-0.0753,-0.0756,-0.0792,-0.079,-0.0732,-0.0723,-0.0716,-0.071,-0.0808,0,0,0,0,0,-0.053,-0.0514,-0.0537,-0.05,-0.0497,-0.054,-0.0541,-0.0566,-0.0592,-0.0603,-0.0643,-0.0683,-0.0711,-0.0721,-0.0742,-0.0736,-0.0768,-0.0732,-0.0724,-0.0717,-0.0716,-0.0767,-0.0764,-0.0793,-0.0793,-0.0793,0,0,-0.0489,-0.0503,-0.049,-0.0487,-0.0497,-0.048,-0.0542,-0.0525,-0.0526,-0.0605,-0.0609,-0.0652,-0.0702,-0.0703,-0.0705,-0.0724,-0.0717,-0.0714,-0.0708,-0.0711,-0.0764,-0.0762,-0.076,-0.0792,-0.0792,-0.0792,0,0,-0.0405,-0.0412,-0.0376,-0.0378,-0.0387,-0.0416,-0.0407,-0.0438,-0.0459,-0.0465,-0.0535,-0.0569,-0.0595,-0.0641,-0.0667,-0.0627,-0.0675,-0.0629,-0.0587,-0.0636,-0.0634,-0.0634,-0.0633,-0.0633,-0.0627,-0.0626,-0.0626,0,-0.0353,-0.0327,-0.0357,-0.0327,-0.0325,-0.0384,-0.0348,-0.0371,-0.0406,-0.0426,-0.0447,-0.0529,-0.0571,-0.0605,-0.0597,-0.0611,-0.0631,-0.0618,-0.0627,-0.0627,-0.0628,-0.0628,-0.063,-0.0622,-0.0623,-0.0623,-0.0623,0,-0.026,-0.0238,-0.0207,-0.0209,-0.0203,-0.0174,-0.0216,-0.0226,-0.0273,-0.0316,-0.0351,-0.0417,-0.0472,-0.049,-0.0533,-0.0559,-0.0566,-0.0611,-0.0651,-0.062,-0.0622,-0.0624,-0.0616,-0.0618,-0.0619,-0.062,0,0,-0.0151,-0.0145,-0.0137,-0.0131,-0.0144,-0.0131,-0.0129,-0.0153,-0.016,-0.0215,-0.0232,-0.0306,-0.0364,-0.0398,-0.0463,-0.0509,-0.0523,-0.0555,-0.056,-0.0554,-0.0593,-0.0503,-0.0497,-0.0575,-0.0575,-0.0576,-0.0579,0,-0.0072,-0.0008,-0.0031,0.002,0.0046,-0.0009,0.0,-0.0035,-0.0078,-0.0103,-0.0204,-0.0233,-0.0323,-0.0343,-0.0409,-0.0489,-0.0532,-0.0516,-0.0625,-0.0627,-0.0552,-0.0499,-0.0465,-0.0457,-0.0582,-0.0582,-0.0583,0,0.0013,0.0036,0.0104,0.0107,0.0118,0.0135,0.0118,0.0117,0.0056,0.0024,-0.0049,-0.0118,-0.0196,-0.0274,-0.0411,-0.0394,-0.0489,-0.0558,-0.0561,-0.0512,-0.0542,-0.0517,-0.0458,-0.0696,-0.0588,-0.0587,-0.0587,0,0.0075,0.0122,0.017,0.0177,0.0185,0.0195,0.0189,0.0152,0.017,0.01,0.0119,-0.0015,-0.0032,-0.0195,-0.0318,-0.0376,-0.044,-0.0545,-0.0554,-0.0547,-0.0557,-0.0549,-0.0745,-0.0654,-0.0654,-0.0654,-0.0654,0,0.0148,0.0186,0.0203,0.0229,0.0295,0.0261,0.0321,0.0288,0.028,0.0353,0.0189,0.0239,-0.0013,-0.0072,-0.0255,-0.0357,-0.0391,-0.0524,-0.0542,-0.0519,-0.0508,-0.0748,-0.0897,-0.0654,-0.0654,-0.0654,-0.0654,0,0.0206,0.0219,0.0278,0.0305,0.0329,0.0368,0.0432,0.0483,0.0445,0.0541,0.0536,0.0445,0.0393,0.0182,-0.0022,-0.0213,-0.048,-0.0401,-0.0318,-0.0327,-0.0593,-0.0736,-0.093,-0.104,-0.0449,-0.0447,-0.0445,0,0.0242,0.0281,0.035,0.0415,0.0437,0.0503,0.0581,0.0569,0.0649,0.0712,0.0789,0.0755,0.0823,0.0565,0.0222,-0.0045,-0.0331,-0.0242,-0.0375,-0.0575,-0.0752,-0.0876,-0.0965,-0.0352,-0.0349,-0.0347,-0.0345,0,0.0315,0.0339,0.0391,0.0532,0.0627,0.0737,0.0842,0.0932,0.0979,0.1096,0.1265,0.1326,0.1109,0.0881,0.0491,0.0244,-0.0409,-0.0207,-0.0473,-0.0722,-0.0817,-0.0938,-0.0356,-0.0327,-0.0329,-0.033,-0.0331,-0.0332,0.038,0.0438,0.053,0.066,0.079,0.0963,0.1075,0.1237,0.1428,0.1661,0.1684,0.1877,0.1443,0.0932,0.055,-0.0177,-0.0243,-0.0444,-0.0605,-0.0713,-0.0818,-0.0144,-0.0099,-0.0099,-0.01,-0.01,-0.01,0,0.0458,0.0537,0.0667,0.083,0.0996,0.1039,0.1259,0.1407,0.1695,0.2011,0.2226,0.2201,0.1642,0.0984,0.0016,-0.05,-0.077,-0.0811,-0.1053,-0.1133,-0.0582,-0.0577,-0.0562,-0.0562,-0.0561,-0.0561,-0.0561,-0.0561,0.0512,0.0638,0.0702,0.0981,0.1111,0.1331,0.1462,0.1726,0.1983,0.2415,0.2634,0.276,0.2248,0.0494,-0.0699,-0.0984,-0.1433,-0.1478,-0.1699,-0.1404,-0.1385,-0.1368,-0.1401,-0.1558,-0.1559,-0.2201,-0.2207,-0.2212]}],[{"header":{"parameterUnit":"m.s-1","parameterCategory":2,"la1":30.2991,"la2":30.254,"lo1":-89.0895,"lo2":-89.0444,"dy":0.0017,"dx":0.0017,"nx":28,"ny":28,"refTime":"2024-12-17T03:00:00:Z","depth":"2","parameterNumber":2,"parameterNumberName":"U-component_of_CURRENTS"},"data":[0,0,0,0,0,0,0,0,0,0,0,0,0,0,0,0,0,0,0,0,0,0,0,0,0,0,0,0,0,0,0,0,0,0,0,0,0,0,0,0,0,0,0,0,0,0,0,0,0,0,0,0,0,0,0,0,0,0,0.2811,0.2812,0,0.2869,0.2869,0.287,0.2907,0.2907,0.2907,0.2907,0.293,0.2931,0.2932,0,0,0,0,0,0,0,0,0,0,0,0,0,0.2761,0.2762,0.2811,0.2812,0.2812,0.2868,0.2869,0.287,0.2907,0.2907,0.2907,0.2907,0.293,0.2931,0.2932,0,0,0,0,0,0,0,0,0,0,0,0,0,0.28,0.2762,0.2811,0.2835,0.2838,0.2868,0.2869,0.2871,0.2907,0.2907,0.2907,0.2907,0.293,0.2931,0.2932,0.2938,0,0,0.2935,0.2935,0,0,0,0,0,0,0,0,0.2797,0.2802,0.2831,0.2834,0.2837,0.2878,0.286,0.2891,0.2907,0.2883,0.2907,0.2907,0.2908,0.2911,0.2926,0.2939,0.294,0.2935,0.2935,0.2936,0.2936,0,0,0,0,0,0,0,0.2795,0.28,0.2837,0.2832,0.2835,0.2852,0.2858,0.2867,0.2897,0.2885,0.2887,0.289,0.291,0.2925,0.2926,0.2941,0.2935,0.2936,0.2936,0.2937,0.302,0.3022,0,0,0,0,0,0,0.2781,0.2797,0.2835,0.2838,0.2814,0.2853,0.2859,0.2867,0.2897,0.2901,0.289,0.2891,0.2923,0.2925,0.2927,0.2986,0.2936,0.2937,0.2937,0.3018,0.302,0.3022,0,0,0,0,0,0,0.278,0.2784,0.2832,0.2816,0.2823,0.2853,0.2862,0.2868,0.2893,0.29,0.2904,0.2909,0.2923,0.2926,0.2951,0.2985,0.2937,0.2938,0.3016,0.3019,0.3021,0.3071,0,0,0,0,0,0,0.2778,0.2784,0.2798,0.2816,0.2824,0.2859,0.2862,0.2869,0.2892,0.2895,0.2918,0.292,0.2923,0.2949,0.2952,0.2985,0.2939,0.3014,0.3018,0.302,0.3067,0.3075,0.3081,0,0,0,0,0,0.2776,0.2783,0.2798,0.2803,0.2838,0.2859,0.2866,0.2888,0.2893,0.291,0.2927,0.2919,0.2971,0.2951,0.2954,0.2988,0.3013,0.3017,0.302,0.3064,0.3074,0.3081,0,0,0,0,0,0,0.2754,0.2788,0.2804,0.2819,0.2844,0.2865,0.2885,0.2894,0.2922,0.2934,0.2933,0.2937,0.2978,0.2973,0.2951,0.3023,0.2994,0.2998,0.3026,0.3035,0.3042,0.3067,0.294,0,0,0,0,0,0.2759,0.2787,0.281,0.2825,0.2841,0.2867,0.2882,0.2901,0.292,0.2934,0.2945,0.2966,0.2995,0.3004,0.3027,0.3055,0.3083,0.3082,0.309,0.3095,0.3119,0.3194,0.321,0.3034,0.3034,0.3034,0,0,0.2754,0.2777,0.2792,0.2825,0.2852,0.2883,0.2878,0.2911,0.2944,0.2931,0.2979,0.2992,0.3009,0.3053,0.307,0.3051,0.3159,0.31,0.3105,0.3126,0.3199,0.3217,0.3232,0.3037,0.3036,0.3036,0,0,0.2752,0.2782,0.2807,0.2838,0.2882,0.2904,0.2913,0.2946,0.2973,0.3011,0.3023,0.3058,0.308,0.3113,0.3128,0.3186,0.3197,0.3188,0.3239,0.3311,0.3326,0.334,0.339,0.3408,0.3186,0.3186,0.3186,0,0.2749,0.278,0.2814,0.2848,0.2881,0.2913,0.2947,0.2982,0.3018,0.3048,0.3034,0.3116,0.3118,0.3194,0.3213,0.3205,0.3239,0.3202,0.3321,0.3336,0.3349,0.3397,0.3416,0.3189,0.3189,0.3188,0.3188,0,0.2768,0.2802,0.2819,0.2884,0.2922,0.2958,0.3011,0.3054,0.3082,0.3112,0.319,0.3209,0.3265,0.3264,0.3252,0.3352,0.3344,0.3325,0.33,0.337,0.3416,0.3435,0.3193,0.3192,0.3191,0.3191,0,0,0.2742,0.2818,0.283,0.2868,0.295,0.2981,0.3056,0.3126,0.3186,0.3228,0.3306,0.335,0.3376,0.3397,0.3402,0.3445,0.3552,0.3425,0.3427,0.3475,0.3708,0.3654,0.3669,0.3556,0.356,0.3563,0.3699,0,0.2751,0.2814,0.2855,0.2926,0.2967,0.3038,0.3089,0.3166,0.3242,0.3326,0.3379,0.3452,0.3425,0.3462,0.3514,0.3546,0.3607,0.3517,0.3634,0.3638,0.3581,0.3691,0.3408,0.3503,0.3718,0.3721,0.3723,0,0.2759,0.2806,0.287,0.2952,0.2976,0.3026,0.3156,0.3225,0.3355,0.3406,0.3518,0.3561,0.3661,0.3618,0.3747,0.3693,0.3722,0.3731,0.3736,0.3687,0.362,0.347,0.353,0.3755,0.3753,0.375,0.3748,0,0.273,0.2817,0.287,0.2906,0.2999,0.3053,0.3127,0.3255,0.3333,0.3504,0.3572,0.369,0.3771,0.3832,0.3878,0.3825,0.4006,0.3933,0.3919,0.3914,0.3699,0.3669,0.4048,0.4048,0.4048,0.4047,0.4047,0,0.272,0.2763,0.2866,0.2898,0.2963,0.3059,0.3163,0.3252,0.3407,0.3511,0.3636,0.3733,0.3832,0.3939,0.3949,0.4016,0.4084,0.3968,0.3965,0.3706,0.3677,0.3908,0.389,0.4052,0.4051,0.405,0.4049,0,0.2678,0.2733,0.28,0.2911,0.2947,0.3018,0.3171,0.3251,0.3408,0.357,0.3628,0.3805,0.3933,0.4023,0.4133,0.4114,0.4165,0.4172,0.3857,0.3815,0.3997,0.398,0.4157,0.4157,0.4157,0.4157,0.4156,0,0.2666,0.2697,0.2809,0.2847,0.2902,0.3017,0.3075,0.3233,0.3341,0.3596,0.3661,0.3854,0.3948,0.4112,0.4123,0.4175,0.4208,0.3932,0.3776,0.404,0.4019,0.4002,0.3986,0.3503,0.3497,0.3493,0.3489,0,0.2647,0.2685,0.2736,0.2829,0.2896,0.2959,0.3087,0.3142,0.3346,0.3458,0.3615,0.3717,0.3915,0.3845,0.3958,0.3933,0.3893,0.384,0.4237,0.3519,0.3434,0.3409,0.3413,0.3449,0.3453,0.3456,0.3458,0.3459,0.2638,0.2665,0.274,0.2805,0.2863,0.2894,0.2905,0.303,0.3124,0.3257,0.3444,0.35,0.3607,0.3609,0.3539,0.3498,0.3739,0.3563,0.3572,0.3587,0.3488,0.3406,0.3397,0.34,0.3403,0.3406,0.3408,0,0.2632,0.266,0.2721,0.2758,0.2755,0.284,0.2887,0.2845,0.2869,0.3043,0.3132,0.2967,0.2991,0.308,0.2976,0.3012,0.2927,0.2873,0.2726,0.2774,0.2814,0.2667,0.2363,0.2359,0.2354,0.2351,0,0,0.263,0.2646,0.2657,0.2625,0.2663,0.2614,0.26,0.2544,0.2593,0.2553,0.2588,0.2852,0.302,0.2638,0.2625,0.2467,0.2577,0.2375,0.3233,0.3109,0.3143,0.3258,0.3095,0,0,0,0,0]},{"header":{"parameterUnit":"m.s-1","parameterCategory":2,"la1":30.2991,"la2":30.254,"lo1":-89.0895,"lo2":-89.0444,"dy":0.0017,"dx":0.0017,"nx":28,"ny":28,"refTime":"2024-12-17T03:00:00:Z","depth":"2","parameterNumber":3,"parameterNumberName":"V-component_of_CURRENTS"},"data":[0,0,0,0,0,0,0,0,0,0,0,0,0,0,0,0,0,0,0,0,0,0,0,0,0,0,0,0,0,0,0,0,0,0,0,0,0,0,0,0,0,0,0,0,0,0,0,0,0,0,0,0,0,0,0,0,0,0,0.0192,0.0192,0,0.0113,0.0112,0.0111,0.0045,0.0045,0.0045,0.0044,-0.0084,-0.0087,-0.009,0,0,0,0,0,0,0,0,0,0,0,0,0,0.0217,0.0218,0.0192,0.0192,0.0191,0.0114,0.0112,0.0111,0.0045,0.0045,0.0044,0.0044,-0.0083,-0.0086,-0.009,0,0,0,0,0,0,0,0,0,0,0,0,0,0.0177,0.0218,0.0193,0.0151,0.0147,0.0114,0.0112,0.011,0.0046,0.0045,0.0044,0.0044,-0.0082,-0.0086,-0.0091,-0.0107,0,0,-0.0104,-0.0106,0,0,0,0,0,0,0,0,0.0179,0.0175,0.0158,0.0154,0.015,0.0091,0.0074,0.0036,0.0046,0.0081,0.0044,0.0043,-0.0027,-0.0036,-0.0054,-0.0113,-0.0118,-0.0105,-0.0108,-0.011,-0.0111,0,0,0,0,0,0,0,0.0182,0.0178,0.0158,0.0158,0.0152,0.0114,0.0107,0.0066,0.0028,0.0078,0.0073,0.007,-0.0031,-0.0049,-0.0057,-0.012,-0.0105,-0.0109,-0.0112,-0.0113,-0.0212,-0.0211,0,0,0,0,0,0,0.0203,0.0181,0.016,0.0156,0.0167,0.0114,0.0107,0.0108,0.0029,0.0018,0.0071,0.0067,-0.0041,-0.0052,-0.0062,-0.0081,-0.011,-0.0114,-0.0116,-0.0212,-0.0211,-0.0211,0,0,0,0,0,0,0.0204,0.0202,0.0164,0.0169,0.0162,0.0115,0.0116,0.0107,0.0088,0.0025,0.0012,0.0063,-0.0042,-0.0056,-0.0096,-0.0087,-0.0116,-0.012,-0.0212,-0.0212,-0.0211,-0.0123,0,0,0,0,0,0,0.0205,0.0203,0.0204,0.0171,0.0162,0.0151,0.0117,0.0106,0.0089,0.0083,0.0014,0.0001,-0.0044,-0.0089,-0.0101,-0.0094,-0.0124,-0.0212,-0.0212,-0.0211,-0.0126,-0.012,-0.0115,0,0,0,0,0,0.0206,0.0216,0.0205,0.0202,0.0168,0.0152,0.0144,0.0106,0.0089,0.0085,0.0037,0.0003,-0.0096,-0.0093,-0.0106,-0.0101,-0.0212,-0.0212,-0.0211,-0.0129,-0.0121,-0.0115,0,0,0,0,0,0,0.0228,0.021,0.0196,0.02,0.0181,0.0142,0.0135,0.0113,0.0072,0.0064,0.0004,-0.0012,-0.0045,-0.0085,-0.008,-0.0129,-0.016,-0.0162,-0.0092,-0.0085,-0.008,-0.0051,-0.0127,0,0,0,0,0,0.0236,0.0237,0.0214,0.0217,0.0211,0.0174,0.0161,0.0139,0.0103,0.0085,0.0039,-0.0012,-0.0054,-0.0079,-0.0123,-0.0149,-0.0185,-0.0155,-0.0149,-0.0144,-0.0131,-0.0181,-0.0178,-0.021,-0.021,-0.021,0,0,0.0243,0.0235,0.0234,0.0221,0.0201,0.0203,0.0164,0.0152,0.0153,0.0077,0.0059,0.0007,-0.0057,-0.0086,-0.0104,-0.0119,-0.0154,-0.0144,-0.0138,-0.0128,-0.018,-0.0177,-0.0174,-0.021,-0.021,-0.021,0,0,0.0269,0.0256,0.0267,0.0258,0.0241,0.0221,0.0225,0.0192,0.0175,0.0149,0.0098,0.0057,-0.001,-0.0048,-0.0077,-0.0066,-0.0121,-0.0085,-0.0033,-0.0081,-0.0078,-0.0076,-0.0112,-0.0114,-0.0082,-0.0082,-0.0081,0,0.0276,0.0297,0.0267,0.028,0.0284,0.0239,0.0259,0.0235,0.0192,0.019,0.0154,0.0068,0.0011,-0.0016,-0.0017,-0.0051,-0.0085,-0.0051,-0.0071,-0.007,-0.007,-0.0107,-0.0111,-0.0077,-0.0078,-0.0078,-0.0079,0,0.0315,0.033,0.0339,0.0343,0.0338,0.0349,0.0323,0.0315,0.0287,0.0261,0.0228,0.0146,0.0098,0.007,0.0026,0.0006,-0.0021,-0.0056,-0.0083,-0.0061,-0.0102,-0.0107,-0.0071,-0.0073,-0.0074,-0.0075,0,0,0.0338,0.0364,0.0367,0.0395,0.0379,0.0389,0.0391,0.0391,0.0412,0.0342,0.0356,0.0263,0.0217,0.0181,0.0118,0.0072,0.0039,0.0015,0.0011,-0.0008,-0.006,-0.0081,-0.0089,-0.0003,-0.0003,-0.0004,-0.0087,0,0.0381,0.0438,0.043,0.0484,0.0515,0.0488,0.0511,0.0498,0.0468,0.0465,0.0377,0.0352,0.026,0.024,0.0177,0.008,0.0028,0.0065,-0.0089,-0.0093,-0.0105,-0.0095,-0.0065,-0.0137,-0.0092,-0.0093,-0.0094,0,0.0425,0.0463,0.0526,0.059,0.0603,0.0624,0.0661,0.0671,0.0644,0.062,0.056,0.0488,0.0412,0.0329,0.0166,0.0193,0.0076,-0.001,-0.0016,-0.0068,-0.0124,-0.0155,-0.0149,-0.0103,-0.0102,-0.0101,-0.0101,0,0.0477,0.0536,0.0599,0.0613,0.0663,0.0697,0.0724,0.072,0.0755,0.0713,0.072,0.0605,0.0564,0.0397,0.0205,0.0185,0.003,-0.0024,-0.0155,-0.0158,-0.0178,-0.0181,-0.0142,-0.0142,-0.0142,-0.0142,-0.0141,0,0.0536,0.0588,0.0635,0.0672,0.077,0.0772,0.0857,0.0864,0.0883,0.0944,0.0804,0.0814,0.0579,0.0456,0.0256,0.0046,0.0061,-0.0138,-0.018,-0.0147,-0.0146,-0.0155,-0.0156,-0.0145,-0.0144,-0.0143,-0.0143,0,0.0585,0.0609,0.0695,0.0768,0.0797,0.0867,0.096,0.1024,0.1019,0.1088,0.1083,0.0979,0.0816,0.0572,0.0322,0.0135,-0.0078,-0.0161,-0.0098,-0.0132,-0.0249,-0.0244,-0.0315,-0.0316,-0.0318,-0.0319,-0.0319,0,0.0615,0.066,0.0766,0.0831,0.087,0.0965,0.1045,0.1086,0.1161,0.1197,0.1251,0.112,0.1042,0.0659,0.0311,-0.0032,-0.0079,-0.0223,-0.0269,-0.0231,-0.0266,-0.0259,-0.0253,-0.0262,-0.0262,-0.0262,-0.0262,0,0.0676,0.0709,0.0789,0.0922,0.1018,0.1132,0.1249,0.1334,0.1401,0.1449,0.1501,0.144,0.1085,0.074,0.0275,0.0045,-0.017,-0.024,-0.0217,-0.0218,-0.0188,-0.0219,-0.0214,-0.0265,-0.0265,-0.0264,-0.0264,-0.0264,0.0724,0.0793,0.0897,0.1031,0.1144,0.1295,0.141,0.1529,0.1658,0.1755,0.1692,0.1603,0.1219,0.0615,0.0216,-0.0195,-0.0188,-0.0334,-0.0331,-0.0328,-0.0303,-0.0276,-0.0364,-0.0364,-0.0365,-0.0365,-0.0365,0,0.0784,0.0868,0.0998,0.1161,0.1298,0.1347,0.1548,0.1655,0.1817,0.1877,0.189,0.1517,0.112,0.0681,0.0063,-0.0307,-0.033,-0.0411,-0.0365,-0.0359,-0.0356,-0.0331,-0.0401,-0.0402,-0.0403,-0.0404,0,0,0.0822,0.0952,0.1025,0.1259,0.1377,0.1569,0.1694,0.184,0.1929,0.1964,0.1911,0.1794,0.1254,0.0807,0.0298,-0.0053,-0.0114,-0.0114,-0.0047,0.0074,0.0082,-0.0275,-0.0227,0,0,0,0,0]}],[{"header":{"parameterUnit":"m.s-1","parameterCategory":2,"la1":30.2991,"la2":30.254,"lo1":-89.0895,"lo2":-89.0444,"dy":0.0017,"dx":0.0017,"nx":28,"ny":28,"refTime":"2024-12-17T03:00:00:Z","depth":"4","parameterNumber":2,"parameterNumberName":"U-component_of_CURRENTS"},"data":[0,0,0,0,0,0,0,0,0,0,0,0,0,0,0,0,0,0,0,0,0,0,0,0,0,0,0,0,0,0,0,0,0,0,0,0,0,0,0,0,0,0,0,0,0,0,0,0,0,0,0,0,0,0,0,0,0,0,0.1696,0.1697,0,0.1773,0.1774,0.1774,0.1825,0.1826,0.1826,0.1827,0.1946,0.1948,0.1951,0,0,0,0,0,0,0,0,0,0,0,0,0,0.1574,0.1575,0.1696,0.1698,0.1699,0.1773,0.1774,0.1774,0.1825,0.1826,0.1826,0.1827,0.1945,0.1948,0.1951,0,0,0,0,0,0,0,0,0,0,0,0,0,0.1634,0.1576,0.1696,0.1735,0.1739,0.1773,0.1774,0.1775,0.1825,0.1826,0.1827,0.1827,0.1944,0.1948,0.1952,0.1958,0,0,0.1964,0.1965,0,0,0,0,0,0,0,0,0.163,0.1638,0.1728,0.1732,0.1737,0.1793,0.1774,0.1839,0.1825,0.179,0.1827,0.1828,0.19,0.1907,0.1915,0.1964,0.1969,0.1964,0.1966,0.1968,0.1969,0,0,0,0,0,0,0,0.1626,0.1635,0.1724,0.1729,0.1735,0.1742,0.1751,0.1786,0.1837,0.1793,0.1797,0.181,0.1902,0.1911,0.1919,0.1971,0.1964,0.1967,0.197,0.1971,0.2142,0.2144,0,0,0,0,0,0,0.1622,0.1631,0.1722,0.1727,0.1688,0.1743,0.1754,0.1772,0.1836,0.1847,0.1809,0.1812,0.1904,0.1914,0.1923,0.2034,0.1968,0.1972,0.1974,0.214,0.2143,0.2145,0,0,0,0,0,0,0.1619,0.163,0.1719,0.1682,0.1694,0.1745,0.1765,0.1773,0.1822,0.1849,0.186,0.1855,0.1905,0.1918,0.1995,0.2035,0.1974,0.1977,0.2138,0.2141,0.2144,0.2192,0,0,0,0,0,0,0.1616,0.1628,0.1658,0.1682,0.1696,0.1766,0.1764,0.1774,0.1827,0.1833,0.1891,0.19,0.1907,0.1989,0.1999,0.2039,0.198,0.2135,0.2139,0.2143,0.2188,0.2196,0.2204,0,0,0,0,0,0.1611,0.1643,0.1658,0.1671,0.1729,0.1768,0.1776,0.1812,0.1829,0.1858,0.1903,0.1901,0.2022,0.1994,0.2005,0.2048,0.2133,0.2138,0.2143,0.2184,0.2195,0.2204,0,0,0,0,0,0,0.1612,0.1653,0.167,0.1716,0.1752,0.1778,0.1817,0.1835,0.1891,0.1912,0.1931,0.1944,0.2025,0.2034,0.2003,0.211,0.2076,0.2084,0.2104,0.2114,0.2122,0.2112,0.1983,0,0,0,0,0,0.1623,0.166,0.1694,0.1737,0.176,0.1795,0.1823,0.1848,0.1891,0.1918,0.1958,0.2004,0.2046,0.208,0.2117,0.2179,0.2191,0.2214,0.2223,0.2229,0.223,0.2287,0.23,0.2161,0.2161,0.2161,0,0,0.1636,0.1665,0.1687,0.174,0.1775,0.1809,0.1816,0.1873,0.1908,0.1922,0.2003,0.2039,0.207,0.2137,0.2174,0.2156,0.2278,0.2236,0.2241,0.2238,0.2293,0.2306,0.2318,0.2165,0.2164,0.2164,0,0,0.166,0.1709,0.1739,0.1772,0.1831,0.1852,0.1877,0.1929,0.1966,0.2033,0.2056,0.212,0.2186,0.2215,0.2234,0.2313,0.2319,0.2334,0.237,0.2425,0.2437,0.2447,0.2485,0.2498,0.2338,0.2338,0.2338,0,0.1677,0.1715,0.1756,0.179,0.182,0.1874,0.1907,0.1951,0.2023,0.206,0.2071,0.2186,0.2215,0.2288,0.2315,0.233,0.236,0.2326,0.2435,0.2445,0.2454,0.2491,0.2505,0.2341,0.2341,0.2341,0.234,0,0.1702,0.1749,0.1777,0.1832,0.1872,0.1918,0.1971,0.2034,0.2084,0.212,0.2219,0.2264,0.2331,0.2353,0.2358,0.2447,0.2447,0.2436,0.2403,0.2471,0.2506,0.2519,0.2345,0.2344,0.2343,0.2343,0,0,0.1689,0.1776,0.1787,0.1817,0.1898,0.1928,0.2007,0.2078,0.2133,0.2215,0.2286,0.2363,0.2403,0.2428,0.2458,0.2502,0.2595,0.2505,0.2506,0.2532,0.2721,0.2569,0.2569,0.2613,0.2615,0.2617,0.272,0,0.1697,0.1755,0.1799,0.1863,0.1897,0.1971,0.2029,0.2107,0.218,0.2269,0.2341,0.2423,0.2428,0.2478,0.2528,0.2586,0.2634,0.2568,0.2661,0.2664,0.2512,0.258,0.2625,0.273,0.2733,0.2736,0.2737,0,0.169,0.1735,0.1791,0.1874,0.1897,0.1949,0.2056,0.2119,0.2249,0.2307,0.2409,0.2475,0.2584,0.2567,0.2698,0.2664,0.27,0.2726,0.2731,0.2577,0.2536,0.265,0.2761,0.2759,0.2758,0.2756,0.2754,0,0.163,0.1722,0.1767,0.1797,0.1901,0.1955,0.2025,0.2141,0.2213,0.2356,0.2434,0.2548,0.2647,0.2707,0.2786,0.2759,0.291,0.2875,0.2768,0.2758,0.2841,0.2829,0.2955,0.2955,0.2954,0.2954,0.2954,0,0.1595,0.1637,0.1755,0.1777,0.185,0.1933,0.2028,0.2111,0.2249,0.2338,0.2467,0.2559,0.2694,0.28,0.2825,0.2845,0.2951,0.2782,0.2777,0.286,0.2849,0.2851,0.2837,0.2958,0.2957,0.2956,0.2956,0,0.1515,0.1593,0.1649,0.177,0.1825,0.1876,0.204,0.2101,0.2246,0.2374,0.2435,0.2622,0.275,0.2854,0.2967,0.2897,0.2919,0.2898,0.2995,0.2993,0.2718,0.2706,0.2772,0.2768,0.2764,0.2761,0.2758,0,0.1474,0.1498,0.1631,0.1676,0.1743,0.1852,0.1927,0.2086,0.2154,0.2389,0.2437,0.2642,0.2744,0.2786,0.2891,0.2928,0.2897,0.2876,0.2769,0.2712,0.2702,0.2696,0.2689,0.2752,0.2751,0.275,0.2749,0,0.1395,0.1454,0.1496,0.1597,0.1685,0.1766,0.1891,0.1935,0.2114,0.2281,0.2388,0.2472,0.262,0.2699,0.2761,0.2775,0.2862,0.2836,0.2842,0.2741,0.2689,0.268,0.2679,0.2736,0.2738,0.2739,0.274,0,0.1333,0.1342,0.1418,0.1486,0.1589,0.164,0.1725,0.1823,0.1922,0.2173,0.2211,0.242,0.2597,0.2625,0.2677,0.2686,0.2637,0.2523,0.2545,0.2561,0.2443,0.2342,0.2287,0,0,0,0,0,0.1262,0.1258,0.1312,0.1369,0.146,0.153,0.1677,0.1764,0.1959,0.1979,0.2085,0.2206,0.2311,0.2423,0.2393,0.2583,0.264,0.2534,0.2517,0.2664,0.2679,0.256,0,0,0,0,0,0,0.1215,0.1247,0.1263,0.1259,0.1281,0.1375,0.1462,0.1596,0.1616,0.1825,0.1902,0.2061,0.2204,0.2307,0.2347,0.2378,0.2319,0.2665,0.2659,0.2655,0.2669,0.2681,0.2564,0,0,0,0,0]},{"header":{"parameterUnit":"m.s-1","parameterCategory":2,"la1":30.2991,"la2":30.254,"lo1":-89.0895,"lo2":-89.0444,"dy":0.0017,"dx":0.0017,"nx":28,"ny":28,"refTime":"2024-12-17T03:00:00:Z","depth":"4","parameterNumber":3,"parameterNumberName":"V-component_of_CURRENTS"},"data":[0,0,0,0,0,0,0,0,0,0,0,0,0,0,0,0,0,0,0,0,0,0,0,0,0,0,0,0,0,0,0,0,0,0,0,0,0,0,0,0,0,0,0,0,0,0,0,0,0,0,0,0,0,0,0,0,0,0,0.0233,0.0233,0,0.0182,0.0181,0.018,0.0149,0.0149,0.0149,0.0149,0.0053,0.0051,0.0048,0,0,0,0,0,0,0,0,0,0,0,0,0,0.0264,0.0263,0.0233,0.0233,0.0232,0.0182,0.0181,0.018,0.0149,0.0149,0.0149,0.0149,0.0054,0.0051,0.0048,0,0,0,0,0,0,0,0,0,0,0,0,0,0.0234,0.0263,0.0233,0.0211,0.0209,0.0182,0.0181,0.018,0.0149,0.0149,0.0149,0.0149,0.0055,0.0052,0.0048,0.0027,0,0,0.0036,0.0035,0,0,0,0,0,0,0,0,0.0236,0.0233,0.0215,0.0213,0.021,0.0173,0.0157,0.0127,0.0149,0.0171,0.0149,0.0149,0.009,0.0083,0.0073,0.0022,0.0018,0.0036,0.0034,0.0032,0.0031,0,0,0,0,0,0,0,0.0238,0.0235,0.0212,0.0215,0.0211,0.019,0.0186,0.0151,0.013,0.0169,0.0167,0.0163,0.0088,0.0077,0.007,0.0017,0.0036,0.0033,0.0031,0.0029,-0.0056,-0.0056,0,0,0,0,0,0,0.0249,0.0237,0.0213,0.021,0.0224,0.019,0.0185,0.0184,0.0131,0.0124,0.0163,0.0161,0.0083,0.0075,0.0067,0.0054,0.0032,0.0029,0.0027,-0.0056,-0.0056,-0.0056,0,0,0,0,0,0,0.025,0.0247,0.0216,0.0223,0.0218,0.019,0.0188,0.0183,0.0175,0.0127,0.0119,0.0161,0.0083,0.0072,0.0039,0.0049,0.0027,0.0024,-0.0056,-0.0056,-0.0056,0.0018,0,0,0,0,0,0,0.0251,0.0248,0.0251,0.0224,0.0218,0.0205,0.0188,0.0182,0.0173,0.0171,0.0123,0.0113,0.0082,0.0045,0.0036,0.0044,0.0021,-0.0056,-0.0056,-0.0056,0.0015,0.002,0.0024,0,0,0,0,0,0.0252,0.0255,0.0251,0.0248,0.0223,0.0205,0.02,0.0178,0.0173,0.0171,0.0139,0.0115,0.0038,0.0042,0.0031,0.0038,-0.0056,-0.0056,-0.0056,0.0013,0.0019,0.0024,0,0,0,0,0,0,0.0263,0.0251,0.0247,0.0244,0.023,0.02,0.0197,0.0184,0.0158,0.0157,0.0113,0.0101,0.0077,0.0044,0.0049,0.0012,-0.0012,-0.0015,0.0044,0.0049,0.0054,0.0082,0.0018,0,0,0,0,0,0.027,0.0273,0.0254,0.0253,0.0249,0.0226,0.0216,0.0204,0.0178,0.0167,0.0135,0.0098,0.0067,0.0048,0.0014,-0.0008,-0.0043,-0.0012,-0.0007,-0.0003,0.0011,-0.0034,-0.0032,-0.0057,-0.0057,-0.0057,0,0,0.0273,0.0268,0.0269,0.0256,0.0244,0.0246,0.022,0.0212,0.0216,0.016,0.0152,0.0112,0.0064,0.0042,0.0028,0.0017,-0.0017,-0.0003,0.0001,0.0013,-0.0034,-0.0031,-0.0029,-0.0057,-0.0057,-0.0057,0,0,0.0286,0.0279,0.0289,0.0284,0.0274,0.0261,0.0263,0.024,0.0234,0.0216,0.0181,0.0151,0.0098,0.0073,0.0051,0.0058,0.0009,0.0041,0.0088,0.0044,0.0046,0.0047,0.0001,-0.0002,0.0044,0.0044,0.0044,0,0.0289,0.0306,0.0288,0.0298,0.0304,0.0274,0.029,0.0276,0.0246,0.0247,0.0222,0.0159,0.0116,0.0099,0.0101,0.0071,0.0034,0.0075,0.0052,0.0052,0.0053,0.0004,-0.0,0.0048,0.0047,0.0047,0.0047,0,0.0314,0.0329,0.0334,0.0345,0.0344,0.0352,0.0339,0.0337,0.0323,0.0306,0.0286,0.0225,0.0192,0.0169,0.0136,0.0121,0.009,0.0064,0.0044,0.006,0.0007,0.0001,0.0053,0.0052,0.0051,0.005,0,0,0.0318,0.0348,0.0352,0.0379,0.0376,0.0383,0.0394,0.0399,0.0418,0.0373,0.0383,0.0323,0.0292,0.0265,0.0217,0.0177,0.014,0.0128,0.0124,0.0093,0.0037,0.0012,0.0002,0.0107,0.0107,0.0106,-0.0002,0,0.0346,0.0393,0.0395,0.0441,0.0467,0.0458,0.048,0.0479,0.0462,0.046,0.0402,0.0385,0.0328,0.0313,0.0265,0.0172,0.0128,0.0172,0.0016,0.0012,-0.0003,-0.0004,0.0105,-0.0007,-0.0009,-0.001,-0.001,0,0.0373,0.0406,0.0461,0.0518,0.0529,0.0553,0.0592,0.0603,0.0589,0.0572,0.0538,0.0487,0.0431,0.0376,0.0234,0.0262,0.0164,0.0085,0.0078,0.003,-0.0023,-0.0028,-0.0022,-0.0021,-0.002,-0.002,-0.0019,0,0.0403,0.0456,0.0511,0.0526,0.0574,0.0609,0.0636,0.0643,0.0669,0.0644,0.0645,0.0564,0.0524,0.0397,0.0235,0.0233,0.0067,0.0039,-0.0076,-0.0079,-0.0056,-0.0056,-0.0056,-0.0056,-0.0056,-0.0055,-0.0055,0,0.0436,0.0481,0.0537,0.0569,0.0648,0.0663,0.0736,0.0742,0.0758,0.0786,0.071,0.0696,0.0527,0.0411,0.0259,0.0072,0.008,-0.0063,-0.0106,-0.0025,-0.002,-0.0061,-0.006,-0.006,-0.0059,-0.0058,-0.0057,0,0.0457,0.049,0.0562,0.0635,0.0666,0.0723,0.081,0.0856,0.0859,0.0887,0.0884,0.0791,0.0634,0.0452,0.0233,0.0108,-0.0071,-0.014,-0.0038,-0.0075,-0.0193,-0.0188,-0.0272,-0.0273,-0.0275,-0.0276,-0.0277,0,0.0471,0.0509,0.0611,0.0665,0.0705,0.0793,0.0857,0.0899,0.094,0.0937,0.0947,0.0825,0.0733,0.0419,0.0213,-0.0077,-0.0121,-0.021,-0.0199,-0.0181,-0.0214,-0.0206,-0.0199,-0.0279,-0.028,-0.028,-0.028,0,0.0494,0.0532,0.0595,0.0709,0.0791,0.0885,0.0973,0.101,0.1047,0.105,0.0998,0.0844,0.0663,0.0417,0.0191,-0.0018,-0.0148,-0.0226,-0.0224,-0.0214,-0.0191,-0.0221,-0.0212,-0.0286,-0.0285,-0.0284,-0.0284,0,0.0513,0.0562,0.0649,0.075,0.0852,0.0945,0.0995,0.1044,0.1084,0.1075,0.1049,0.0862,0.0755,0.0445,0.0233,0.0028,-0.0027,-0.0088,-0.0095,-0.0092,-0.0012,0.0046,-0.0007,0,0,0,0,0,0.0527,0.059,0.0684,0.0799,0.0898,0.0964,0.1057,0.1094,0.1125,0.1098,0.108,0.091,0.0604,0.0472,0.0262,0.0187,-0.0075,-0.0068,-0.0151,-0.0313,-0.0308,-0.0248,0,0,0,0,0,0,0.0542,0.0627,0.0683,0.0814,0.0898,0.1014,0.1079,0.1105,0.109,0.1086,0.0928,0.0855,0.0556,0.0727,0.0259,0.0195,0.0113,-0.0209,-0.0214,-0.0317,-0.0311,-0.0307,-0.0243,0,0,0,0,0]}]]